Location: Huntsville
(41.2590°N, 111.7678°W)
Time: 00:53:04
(UTC+00:00)

X-37B - Visible Passes

Search period start: 07 May 2021 00:00
Search period end: 17 May 2021 00:00
Orbit: 386 x 389 km, 45.0° (Epoch: 05 May)

Date Brightness Start Highest point End Pass type
(mag) Time Alt. Az. Time Alt. Az. Time Alt. Az.
07 May 1.7 03:42:27 10° W 03:45:31 43° N 03:48:36 10° ENE visible
07 May 2.9 05:19:23 10° WNW 05:20:57 25° NW 05:20:57 25° NW visible
08 May 1.7 04:20:58 10° WNW 04:24:01 41° N 04:25:09 28° NE visible
09 May 1.8 03:22:30 10° WNW 03:25:32 39° N 03:28:34 10° ENE visible
09 May 1.8 04:59:16 10° WNW 05:01:35 42° NW 05:01:35 42° NW visible
10 May 1.4 04:00:53 10° WNW 04:04:00 48° N 04:05:41 23° ENE visible
10 May 3.6 05:37:35 10° WNW 05:37:58 13° WNW 05:37:58 13° WNW visible
11 May 1.7 03:02:29 10° WNW 03:05:31 41° N 03:08:35 10° ENE visible
11 May 0.7 04:39:09 10° WNW 04:42:04 70° W 04:42:04 70° W visible
12 May 0.8 03:40:47 10° WNW 03:43:58 66° NNE 03:46:10 18° E visible
12 May 3.3 05:17:41 10° W 05:18:26 15° W 05:18:26 15° W visible
13 May 1.0 04:19:06 10° WNW 04:22:11 47° SSW 04:22:33 44° S visible
14 May 0.6 03:20:40 10° WNW 03:23:52 81° SSW 03:26:42 13° ESE visible
14 May 3.2 04:58:13 10° WSW 04:58:58 13° WSW 04:58:58 13° WSW visible
15 May 2.1 03:59:13 10° W 04:01:57 26° SSW 04:03:09 20° S visible
